Year,Month,Day,Hour,Minute,Value (Times are PST for temperature in C)
2017,05,29,00,00,21.40
2017,05,29,00,01,21.30
2017,05,29,00,02,21.10
2017,05,29,00,03,21.10
2017,05,29,00,04,21.00
2017,05,29,00,05,20.90
2017,05,29,00,06,20.80
2017,05,29,00,07,20.70
2017,05,29,00,08,20.70
2017,05,29,00,09,20.60
2017,05,29,00,10,20.60
2017,05,29,00,11,20.50
2017,05,29,00,12,20.40
2017,05,29,00,13,20.40
2017,05,29,00,14,20.40
2017,05,29,00,15,20.30
2017,05,29,00,16,20.30
2017,05,29,00,17,20.30
2017,05,29,00,18,20.30
2017,05,29,00,19,20.30
2017,05,29,00,20,20.30
2017,05,29,00,21,20.30
2017,05,29,00,22,20.30
2017,05,29,00,23,20.30
2017,05,29,00,24,20.30
2017,05,29,00,25,20.30
2017,05,29,00,26,20.30
2017,05,29,00,27,20.30
2017,05,29,00,28,20.20
2017,05,29,00,29,20.20
2017,05,29,00,30,20.20
2017,05,29,00,31,20.20
2017,05,29,00,32,20.20
2017,05,29,00,33,20.20
2017,05,29,00,34,20.20
2017,05,29,00,35,20.20
2017,05,29,00,36,20.20
2017,05,29,00,37,20.20
2017,05,29,00,38,20.20
2017,05,29,00,39,20.10
2017,05,29,00,40,20.10
2017,05,29,00,41,20.10
2017,05,29,00,42,20.10
2017,05,29,00,43,20.10
2017,05,29,00,44,20.10
2017,05,29,00,45,20.00
2017,05,29,00,46,20.00
2017,05,29,00,47,19.90
2017,05,29,00,48,19.90
2017,05,29,00,49,19.90
2017,05,29,00,50,19.80
2017,05,29,00,51,19.80
2017,05,29,00,52,19.70
2017,05,29,00,53,19.70
2017,05,29,00,54,19.60
2017,05,29,00,55,19.60
2017,05,29,00,56,19.60
2017,05,29,00,57,19.50
2017,05,29,00,58,19.60
2017,05,29,00,59,19.50
2017,05,29,01,00,19.60
2017,05,29,01,01,19.60
2017,05,29,01,02,19.60
2017,05,29,01,03,19.60
2017,05,29,01,04,19.60
2017,05,29,01,05,19.60
2017,05,29,01,06,19.60
2017,05,29,01,07,19.60
2017,05,29,01,08,19.60
2017,05,29,01,09,19.60
2017,05,29,01,10,19.60
2017,05,29,01,11,19.60
2017,05,29,01,12,19.60
2017,05,29,01,13,19.50
2017,05,29,01,14,19.50
2017,05,29,01,15,19.50
2017,05,29,01,16,19.50
2017,05,29,01,17,19.40
2017,05,29,01,18,19.40
2017,05,29,01,19,19.40
2017,05,29,01,20,19.40
2017,05,29,01,21,19.40
2017,05,29,01,22,19.40
2017,05,29,01,23,19.40
2017,05,29,01,24,19.50
2017,05,29,01,25,19.50
2017,05,29,01,26,19.50
2017,05,29,01,27,19.60
2017,05,29,01,28,19.60
2017,05,29,01,29,19.60
2017,05,29,01,30,19.60
2017,05,29,01,31,19.60
2017,05,29,01,32,19.60
2017,05,29,01,33,19.60
2017,05,29,01,34,19.60
2017,05,29,01,35,19.60
2017,05,29,01,36,19.60
2017,05,29,01,37,19.60
2017,05,29,01,38,19.60
2017,05,29,01,39,19.60
2017,05,29,01,40,19.60
2017,05,29,01,41,19.50
2017,05,29,01,42,19.50
2017,05,29,01,43,19.40
2017,05,29,01,44,19.40
2017,05,29,01,45,19.40
2017,05,29,01,46,19.40
2017,05,29,01,47,19.40
2017,05,29,01,48,19.30
2017,05,29,01,49,19.30
2017,05,29,01,50,19.30
2017,05,29,01,51,19.30
2017,05,29,01,52,19.30
2017,05,29,01,53,19.30
2017,05,29,01,54,19.30
2017,05,29,01,55,19.20
2017,05,29,01,56,19.20
2017,05,29,01,57,19.20
2017,05,29,01,58,19.10
2017,05,29,01,59,19.10
2017,05,29,02,00,19.10
2017,05,29,02,01,19.00
2017,05,29,02,02,19.00
2017,05,29,02,03,18.90
2017,05,29,02,04,18.90
2017,05,29,02,05,18.90
2017,05,29,02,06,18.80
2017,05,29,02,07,18.80
2017,05,29,02,08,18.80
2017,05,29,02,09,18.80
2017,05,29,02,10,18.80
2017,05,29,02,11,18.70
2017,05,29,02,12,18.70
2017,05,29,02,13,18.70
2017,05,29,02,14,18.70
2017,05,29,02,15,18.70
2017,05,29,02,16,18.70
2017,05,29,02,17,18.70
2017,05,29,02,18,18.70
2017,05,29,02,19,18.60
2017,05,29,02,20,18.60
2017,05,29,02,21,18.60
2017,05,29,02,22,18.60
2017,05,29,02,23,18.60
2017,05,29,02,24,18.60
2017,05,29,02,25,18.60
2017,05,29,02,26,18.60
2017,05,29,02,27,18.60
2017,05,29,02,28,18.60
2017,05,29,02,29,18.60
2017,05,29,02,30,18.60
2017,05,29,02,31,18.70
2017,05,29,02,32,18.70
2017,05,29,02,33,18.70
2017,05,29,02,34,18.70
2017,05,29,02,35,18.70
2017,05,29,02,36,18.70
2017,05,29,02,37,18.70
2017,05,29,02,38,18.70
2017,05,29,02,39,18.70
2017,05,29,02,40,18.70
2017,05,29,02,41,18.70
2017,05,29,02,42,18.70
2017,05,29,02,43,18.70
2017,05,29,02,44,18.70
2017,05,29,02,45,18.60
2017,05,29,02,46,18.60
2017,05,29,02,47,18.60
2017,05,29,02,48,18.60
2017,05,29,02,49,18.60
2017,05,29,02,50,18.60
2017,05,29,02,51,18.50
2017,05,29,02,52,18.50
2017,05,29,02,53,18.50
2017,05,29,02,54,18.50
2017,05,29,02,55,18.40
2017,05,29,02,56,18.40
2017,05,29,02,57,18.40
2017,05,29,02,58,18.40
2017,05,29,02,59,18.40
2017,05,29,03,00,18.30
2017,05,29,03,01,18.30
2017,05,29,03,02,18.30
2017,05,29,03,03,18.30
2017,05,29,03,04,18.30
2017,05,29,03,05,18.20
2017,05,29,03,06,18.20
2017,05,29,03,07,18.20
2017,05,29,03,08,18.20
2017,05,29,03,09,18.20
2017,05,29,03,10,18.20
2017,05,29,03,11,18.20
2017,05,29,03,12,18.20
2017,05,29,03,13,18.20
2017,05,29,03,14,18.30
2017,05,29,03,15,18.30
2017,05,29,03,16,18.30
2017,05,29,03,17,18.30
2017,05,29,03,18,18.20
2017,05,29,03,19,18.20
2017,05,29,03,20,18.20
2017,05,29,03,21,18.10
2017,05,29,03,22,18.10
2017,05,29,03,23,18.10
2017,05,29,03,24,18.00
2017,05,29,03,25,18.00
2017,05,29,03,26,17.90
2017,05,29,03,27,17.90
2017,05,29,03,28,17.90
2017,05,29,03,29,17.90
2017,05,29,03,30,17.80
2017,05,29,03,31,17.80
2017,05,29,03,32,17.80
2017,05,29,03,33,17.80
2017,05,29,03,34,17.70
2017,05,29,03,35,17.70
2017,05,29,03,36,17.70
2017,05,29,03,37,17.60
2017,05,29,03,38,17.60
2017,05,29,03,39,17.60
2017,05,29,03,40,17.50
2017,05,29,03,41,17.50
2017,05,29,03,42,17.50
2017,05,29,03,43,17.40
2017,05,29,03,44,17.40
2017,05,29,03,45,17.40
2017,05,29,03,46,17.40
2017,05,29,03,47,17.40
2017,05,29,03,48,17.30
2017,05,29,03,49,17.30
2017,05,29,03,50,17.30
2017,05,29,03,51,17.30
2017,05,29,03,52,17.30
2017,05,29,03,53,17.30
2017,05,29,03,54,17.20
2017,05,29,03,55,17.20
2017,05,29,03,56,17.10
2017,05,29,03,57,17.10
2017,05,29,03,58,17.10
2017,05,29,03,59,17.10
2017,05,29,04,00,17.00
2017,05,29,04,01,16.90
2017,05,29,04,02,16.90
2017,05,29,04,03,16.90
2017,05,29,04,04,16.80
2017,05,29,04,05,16.80
2017,05,29,04,06,16.70
2017,05,29,04,07,16.70
2017,05,29,04,08,16.60
2017,05,29,04,09,16.60
2017,05,29,04,10,16.60
2017,05,29,04,11,16.50
2017,05,29,04,12,16.50
2017,05,29,04,13,16.50
2017,05,29,04,14,16.40
2017,05,29,04,15,16.40
2017,05,29,04,16,16.40
2017,05,29,04,17,16.30
2017,05,29,04,18,16.30
2017,05,29,04,19,16.30
2017,05,29,04,20,16.30
2017,05,29,04,21,16.30
2017,05,29,04,22,16.30
2017,05,29,04,23,16.20
2017,05,29,04,24,16.20
2017,05,29,04,25,16.20
2017,05,29,04,26,16.20
2017,05,29,04,27,16.20
2017,05,29,04,28,16.20
2017,05,29,04,29,16.20
2017,05,29,04,30,16.20
2017,05,29,04,31,16.20
2017,05,29,04,32,16.10
2017,05,29,04,33,16.10
2017,05,29,04,34,16.10
2017,05,29,04,35,16.10
2017,05,29,04,36,16.10
2017,05,29,04,37,16.10
2017,05,29,04,38,16.10
2017,05,29,04,39,16.00
2017,05,29,04,40,16.00
2017,05,29,04,41,16.00
2017,05,29,04,42,15.90
2017,05,29,04,43,15.90
2017,05,29,04,44,15.90
2017,05,29,04,45,15.90
2017,05,29,04,46,15.80
2017,05,29,04,47,15.80
2017,05,29,04,48,15.80
2017,05,29,04,49,15.80
2017,05,29,04,50,15.80
2017,05,29,04,51,15.70
2017,05,29,04,52,15.70
2017,05,29,04,53,15.70
2017,05,29,04,54,15.70
2017,05,29,04,55,15.70
2017,05,29,04,56,15.70
2017,05,29,04,57,15.70
2017,05,29,04,58,15.70
2017,05,29,04,59,15.70
2017,05,29,05,00,15.70
2017,05,29,05,01,15.70
2017,05,29,05,02,15.60
2017,05,29,05,03,15.60
2017,05,29,05,04,15.60
2017,05,29,05,05,15.50
2017,05,29,05,06,15.50
2017,05,29,05,07,15.50
2017,05,29,05,08,15.50
2017,05,29,05,09,15.50
2017,05,29,05,10,15.60
2017,05,29,05,11,15.60
2017,05,29,05,12,15.60
2017,05,29,05,13,15.60
2017,05,29,05,14,15.60
2017,05,29,05,15,15.60
2017,05,29,05,16,15.60
2017,05,29,05,17,15.60
2017,05,29,05,18,15.60
2017,05,29,05,19,15.60
2017,05,29,05,20,15.60
2017,05,29,05,21,15.60
2017,05,29,05,22,15.60
2017,05,29,05,23,15.50
2017,05,29,05,24,15.50
2017,05,29,05,25,15.50
2017,05,29,05,26,15.50
2017,05,29,05,27,15.40
2017,05,29,05,28,15.40
2017,05,29,05,29,15.40
2017,05,29,05,30,15.30
2017,05,29,05,31,15.30
2017,05,29,05,32,15.20
2017,05,29,05,33,15.20
2017,05,29,05,34,15.10
2017,05,29,05,35,15.10
2017,05,29,05,36,15.00
2017,05,29,05,37,14.90
2017,05,29,05,38,14.90
2017,05,29,05,39,14.80
2017,05,29,05,40,14.80
2017,05,29,05,41,14.70
2017,05,29,05,42,14.70
2017,05,29,05,43,14.70
2017,05,29,05,44,14.60
2017,05,29,05,45,14.60
2017,05,29,05,46,14.50
2017,05,29,05,47,14.50
2017,05,29,05,48,14.40
2017,05,29,05,49,14.40
2017,05,29,05,50,14.30
2017,05,29,05,51,14.30
2017,05,29,05,52,14.30
2017,05,29,05,53,14.30
2017,05,29,05,54,14.20
2017,05,29,05,55,14.20
2017,05,29,05,56,14.20
2017,05,29,05,57,14.20
2017,05,29,05,58,14.10
2017,05,29,05,59,14.10
2017,05,29,06,00,14.10
2017,05,29,06,01,14.10
2017,05,29,06,02,14.00
2017,05,29,06,03,14.00
2017,05,29,06,04,13.90
2017,05,29,06,05,13.90
2017,05,29,06,06,13.90
2017,05,29,06,07,13.90
2017,05,29,06,08,13.90
2017,05,29,06,09,13.80
2017,05,29,06,10,13.80
2017,05,29,06,11,13.80
2017,05,29,06,12,13.80
2017,05,29,06,13,13.80
2017,05,29,06,14,13.80
2017,05,29,06,15,13.80
2017,05,29,06,16,13.80
2017,05,29,06,17,13.80
2017,05,29,06,18,13.70
2017,05,29,06,19,13.70
2017,05,29,06,20,13.70
2017,05,29,06,21,13.70
2017,05,29,06,22,13.70
2017,05,29,06,23,13.70
2017,05,29,06,24,13.70
2017,05,29,06,25,13.70
2017,05,29,06,26,13.70
2017,05,29,06,27,13.70
2017,05,29,06,28,13.60
2017,05,29,06,29,13.60
2017,05,29,06,30,13.60
2017,05,29,06,31,13.60
2017,05,29,06,32,13.60
2017,05,29,06,33,13.60
2017,05,29,06,34,13.60
2017,05,29,06,35,13.60
2017,05,29,06,36,13.50
2017,05,29,06,37,13.50
2017,05,29,06,38,13.50
2017,05,29,06,39,13.50
2017,05,29,06,40,13.50
2017,05,29,06,41,13.50
2017,05,29,06,42,13.40
2017,05,29,06,43,13.40
2017,05,29,06,44,13.40
2017,05,29,06,45,13.40
2017,05,29,06,46,13.40
2017,05,29,06,47,13.40
2017,05,29,06,48,13.40
2017,05,29,06,49,13.40
2017,05,29,06,50,13.40
2017,05,29,06,51,13.40
2017,05,29,06,52,13.50
2017,05,29,06,53,13.50
2017,05,29,06,54,13.50
2017,05,29,06,55,13.50
2017,05,29,06,56,13.50
2017,05,29,06,57,13.50
2017,05,29,06,58,13.50
2017,05,29,06,59,13.50
2017,05,29,07,00,13.50
2017,05,29,07,01,13.50
2017,05,29,07,02,13.50
2017,05,29,07,03,13.50
2017,05,29,07,04,13.50
2017,05,29,07,05,13.60
2017,05,29,07,06,13.60
2017,05,29,07,07,13.60
2017,05,29,07,08,13.60
2017,05,29,07,09,13.60
2017,05,29,07,10,13.70
2017,05,29,07,11,13.70
2017,05,29,07,12,13.70
2017,05,29,07,13,13.70
2017,05,29,07,14,13.80
2017,05,29,07,15,13.80
2017,05,29,07,16,13.80
2017,05,29,07,17,13.90
2017,05,29,07,18,14.00
2017,05,29,07,19,14.00
2017,05,29,07,20,14.10
2017,05,29,07,21,14.20
2017,05,29,07,22,14.20
2017,05,29,07,23,14.30
2017,05,29,07,24,14.30
2017,05,29,07,25,14.40
2017,05,29,07,26,14.40
2017,05,29,07,27,14.40
2017,05,29,07,28,14.50
2017,05,29,07,29,14.60
2017,05,29,07,30,14.60
2017,05,29,07,31,14.60
2017,05,29,07,32,14.70
2017,05,29,07,33,14.70
2017,05,29,07,34,14.70
2017,05,29,07,35,14.70
2017,05,29,07,36,14.80
2017,05,29,07,37,14.80
2017,05,29,07,38,14.80
2017,05,29,07,39,14.80
2017,05,29,07,40,14.80
2017,05,29,07,41,14.80
2017,05,29,07,42,14.80
2017,05,29,07,43,14.80
2017,05,29,07,44,14.80
2017,05,29,07,45,14.80
2017,05,29,07,46,14.80
2017,05,29,07,47,14.80
2017,05,29,07,48,14.80
2017,05,29,07,49,14.80
2017,05,29,07,50,14.80
2017,05,29,07,51,14.80
2017,05,29,07,52,14.90
2017,05,29,07,53,14.90
2017,05,29,07,54,14.90
2017,05,29,07,55,14.90
2017,05,29,07,56,14.90
2017,05,29,07,57,14.90
2017,05,29,07,58,14.90
2017,05,29,07,59,14.90
2017,05,29,08,00,14.90
2017,05,29,08,01,14.90
2017,05,29,08,02,14.90
2017,05,29,08,03,14.90
2017,05,29,08,04,14.80
2017,05,29,08,05,14.80
2017,05,29,08,06,14.90
2017,05,29,08,07,14.90
2017,05,29,08,08,14.90
2017,05,29,08,09,15.00
2017,05,29,08,10,15.10
2017,05,29,08,11,15.10
2017,05,29,08,12,15.20
2017,05,29,08,13,15.30
2017,05,29,08,14,15.30
2017,05,29,08,15,15.40
2017,05,29,08,16,15.40
2017,05,29,08,17,15.50
2017,05,29,08,18,15.50
2017,05,29,08,19,15.50
2017,05,29,08,20,15.50
2017,05,29,08,21,15.50
2017,05,29,08,22,15.50
2017,05,29,08,23,15.50
2017,05,29,08,24,15.50
2017,05,29,08,25,15.50
2017,05,29,08,26,15.50
2017,05,29,08,27,15.50
2017,05,29,08,28,15.50
2017,05,29,08,29,15.50
2017,05,29,08,30,15.50
2017,05,29,08,31,15.50
2017,05,29,08,32,15.50
2017,05,29,08,33,15.60
2017,05,29,08,34,15.60
2017,05,29,08,35,15.60
2017,05,29,08,36,15.70
2017,05,29,08,37,15.70
2017,05,29,08,38,15.80
2017,05,29,08,39,15.90
2017,05,29,08,40,16.00
2017,05,29,08,41,16.10
2017,05,29,08,42,16.20
2017,05,29,08,43,16.30
2017,05,29,08,44,16.40
2017,05,29,08,45,16.50
2017,05,29,08,46,16.60
2017,05,29,08,47,16.70
2017,05,29,08,48,16.80
2017,05,29,08,49,16.80
2017,05,29,08,50,16.90
2017,05,29,08,51,16.90
2017,05,29,08,52,17.00
2017,05,29,08,53,17.00
2017,05,29,08,54,17.00
2017,05,29,08,55,17.00
2017,05,29,08,56,17.00
2017,05,29,08,57,17.00
2017,05,29,08,58,16.90
2017,05,29,08,59,16.90
2017,05,29,09,00,16.80
2017,05,29,09,01,16.80
2017,05,29,09,02,16.80
2017,05,29,09,03,16.80
2017,05,29,09,04,16.80
2017,05,29,09,05,16.80
2017,05,29,09,06,16.80
2017,05,29,09,07,16.90
2017,05,29,09,08,16.90
2017,05,29,09,09,16.90
2017,05,29,09,10,16.90
2017,05,29,09,11,17.00
2017,05,29,09,12,17.00
2017,05,29,09,13,17.10
2017,05,29,09,14,17.10
2017,05,29,09,15,17.20
2017,05,29,09,16,17.30
2017,05,29,09,17,17.30
2017,05,29,09,18,17.30
2017,05,29,09,19,17.20
2017,05,29,09,20,17.20
2017,05,29,09,21,17.20
2017,05,29,09,22,17.20
2017,05,29,09,23,17.10
2017,05,29,09,24,17.10
2017,05,29,09,25,17.10
2017,05,29,09,26,17.00
2017,05,29,09,27,17.00
2017,05,29,09,28,16.90
2017,05,29,09,29,16.90
2017,05,29,09,30,16.90
2017,05,29,09,31,16.90
2017,05,29,09,32,16.90
2017,05,29,09,33,16.90
2017,05,29,09,34,16.90
2017,05,29,09,35,16.90
2017,05,29,09,36,16.90
2017,05,29,09,37,16.80
2017,05,29,09,38,16.80
2017,05,29,09,39,16.80
2017,05,29,09,40,16.70
2017,05,29,09,41,16.70
2017,05,29,09,42,16.70
2017,05,29,09,43,16.70
2017,05,29,09,44,16.70
2017,05,29,09,45,16.70
2017,05,29,09,46,16.80
2017,05,29,09,47,16.70
2017,05,29,09,48,16.70
2017,05,29,09,49,16.70
2017,05,29,09,50,16.80
2017,05,29,09,51,16.70
2017,05,29,09,52,16.60
2017,05,29,09,53,16.60
2017,05,29,09,54,16.60
2017,05,29,09,55,16.50
2017,05,29,09,56,16.40
2017,05,29,09,57,16.40
2017,05,29,09,58,16.30
2017,05,29,09,59,16.30
2017,05,29,10,00,16.40
2017,05,29,10,01,16.40
2017,05,29,10,02,16.40
2017,05,29,10,03,16.40
2017,05,29,10,04,16.50
2017,05,29,10,05,16.50
2017,05,29,10,06,16.60
2017,05,29,10,07,16.60
2017,05,29,10,08,16.70
2017,05,29,10,09,16.80
2017,05,29,10,10,16.80
2017,05,29,10,11,16.90
2017,05,29,10,12,16.90
2017,05,29,10,13,17.00
2017,05,29,10,14,17.10
2017,05,29,10,15,17.20
2017,05,29,10,16,17.30
2017,05,29,10,17,17.40
2017,05,29,10,18,17.50
2017,05,29,10,19,17.60
2017,05,29,10,20,17.70
2017,05,29,10,21,17.80
2017,05,29,10,22,17.80
2017,05,29,10,23,17.80
2017,05,29,10,24,17.90
2017,05,29,10,25,17.90
2017,05,29,10,26,17.90
2017,05,29,10,27,18.00
2017,05,29,10,28,18.00
2017,05,29,10,29,18.10
2017,05,29,10,30,18.10
2017,05,29,10,31,18.10
2017,05,29,10,32,18.20
2017,05,29,10,33,18.20
2017,05,29,10,34,18.30
2017,05,29,10,35,18.30
2017,05,29,10,36,18.30
2017,05,29,10,37,18.30
2017,05,29,10,38,18.30
2017,05,29,10,39,18.20
2017,05,29,10,40,18.20
2017,05,29,10,41,18.20
2017,05,29,10,42,18.10
2017,05,29,10,43,18.00
2017,05,29,10,44,17.90
2017,05,29,10,45,17.90
2017,05,29,10,46,17.90
2017,05,29,10,47,17.90
2017,05,29,10,48,17.90
2017,05,29,10,49,17.90
2017,05,29,10,50,17.90
2017,05,29,10,51,17.90
2017,05,29,10,52,17.90
2017,05,29,10,53,17.90
2017,05,29,10,54,17.90
2017,05,29,10,55,18.00
2017,05,29,10,56,18.00
2017,05,29,10,57,18.10
2017,05,29,10,58,18.20
2017,05,29,10,59,18.30
2017,05,29,11,00,18.30
2017,05,29,11,01,18.40
2017,05,29,11,02,18.40
2017,05,29,11,03,18.50
2017,05,29,11,04,18.60
2017,05,29,11,05,18.60
2017,05,29,11,06,18.70
2017,05,29,11,07,18.70
2017,05,29,11,08,18.80
2017,05,29,11,09,18.90
2017,05,29,11,10,18.90
2017,05,29,11,11,19.00
2017,05,29,11,12,19.10
2017,05,29,11,13,19.10
2017,05,29,11,14,19.10
2017,05,29,11,15,19.20
2017,05,29,11,16,19.10
2017,05,29,11,17,19.10
2017,05,29,11,18,19.10
2017,05,29,11,19,19.10
2017,05,29,11,20,19.20
2017,05,29,11,21,19.20
2017,05,29,11,22,19.30
2017,05,29,11,23,19.30
2017,05,29,11,24,19.40
2017,05,29,11,25,19.50
2017,05,29,11,26,19.50
2017,05,29,11,27,19.50
2017,05,29,11,28,19.40
2017,05,29,11,29,19.40
2017,05,29,11,30,19.30
2017,05,29,11,31,19.30
2017,05,29,11,32,19.30
2017,05,29,11,33,19.40
2017,05,29,11,34,19.40
2017,05,29,11,35,19.50
2017,05,29,11,36,19.60
2017,05,29,11,37,19.70
2017,05,29,11,38,19.80
2017,05,29,11,39,19.80
2017,05,29,11,40,19.80
2017,05,29,11,41,19.90
2017,05,29,11,42,19.90
2017,05,29,11,43,19.90
2017,05,29,11,44,19.90
2017,05,29,11,45,19.80
2017,05,29,11,46,19.80
2017,05,29,11,47,19.70
2017,05,29,11,48,19.70
2017,05,29,11,49,19.60
2017,05,29,11,50,19.60
2017,05,29,11,51,19.50
2017,05,29,11,52,19.50
2017,05,29,11,53,19.40
2017,05,29,11,54,19.40
2017,05,29,11,55,19.40
2017,05,29,11,56,19.50
2017,05,29,11,57,19.50
2017,05,29,11,58,19.60
2017,05,29,11,59,19.50
2017,05,29,12,00,19.50
2017,05,29,12,01,19.40
2017,05,29,12,02,19.40
2017,05,29,12,03,19.30
2017,05,29,12,04,19.30
2017,05,29,12,05,19.30
2017,05,29,12,06,19.30
2017,05,29,12,07,19.30
2017,05,29,12,08,19.30
2017,05,29,12,09,19.30
2017,05,29,12,10,19.40
2017,05,29,12,11,19.40
2017,05,29,12,12,19.50
2017,05,29,12,13,19.50
2017,05,29,12,14,19.60
2017,05,29,12,15,19.60
2017,05,29,12,16,19.70
2017,05,29,12,17,19.80
2017,05,29,12,18,19.90
2017,05,29,12,19,20.00
2017,05,29,12,20,20.10
2017,05,29,12,21,20.20
2017,05,29,12,22,20.20
2017,05,29,12,23,20.30
2017,05,29,12,24,20.30
2017,05,29,12,25,20.30
2017,05,29,12,26,20.40
2017,05,29,12,27,20.40
2017,05,29,12,28,20.50
2017,05,29,12,29,20.50
2017,05,29,12,30,20.50
2017,05,29,12,31,20.60
2017,05,29,12,32,20.60
2017,05,29,12,33,20.60
2017,05,29,12,34,20.70
2017,05,29,12,35,20.70
2017,05,29,12,36,20.80
2017,05,29,12,37,20.80
2017,05,29,12,38,20.90
2017,05,29,12,39,21.00
2017,05,29,12,40,21.00
2017,05,29,12,41,21.10
2017,05,29,12,42,21.20
2017,05,29,12,43,21.30
2017,05,29,12,44,21.30
2017,05,29,12,45,21.40
2017,05,29,12,46,21.40
2017,05,29,12,47,21.40
2017,05,29,12,48,21.50
2017,05,29,12,49,21.60
2017,05,29,12,50,21.60
2017,05,29,12,51,21.60
2017,05,29,12,52,21.60
2017,05,29,12,53,21.60
2017,05,29,12,54,21.70
2017,05,29,12,55,21.70
2017,05,29,12,56,21.70
2017,05,29,12,57,21.70
2017,05,29,12,58,21.70
2017,05,29,12,59,21.70
2017,05,29,13,00,21.80
2017,05,29,13,01,21.80
2017,05,29,13,02,21.80
2017,05,29,13,03,21.80
2017,05,29,13,04,21.90
2017,05,29,13,05,21.90
2017,05,29,13,06,21.80
2017,05,29,13,07,21.90
2017,05,29,13,08,21.90
2017,05,29,13,09,22.00
2017,05,29,13,10,22.10
2017,05,29,13,11,22.10
2017,05,29,13,12,22.00
2017,05,29,13,13,22.00
2017,05,29,13,14,22.00
2017,05,29,13,15,21.90
2017,05,29,13,16,21.90
2017,05,29,13,17,21.90
2017,05,29,13,18,21.90
2017,05,29,13,19,21.80
2017,05,29,13,20,21.80
2017,05,29,13,21,21.70
2017,05,29,13,22,21.70
2017,05,29,13,23,21.70
2017,05,29,13,24,21.70
2017,05,29,13,25,21.70
2017,05,29,13,26,21.70
2017,05,29,13,27,21.70
2017,05,29,13,28,21.70
2017,05,29,13,29,21.70
2017,05,29,13,30,21.70
2017,05,29,13,31,21.70
2017,05,29,13,32,21.60
2017,05,29,13,33,21.60
2017,05,29,13,34,21.70
2017,05,29,13,35,21.70
2017,05,29,13,36,21.80
2017,05,29,13,37,21.80
2017,05,29,13,38,21.90
2017,05,29,13,39,21.90
2017,05,29,13,40,21.90
2017,05,29,13,41,21.90
2017,05,29,13,42,21.80
2017,05,29,13,43,21.80
2017,05,29,13,44,21.80
2017,05,29,13,45,21.80
2017,05,29,13,46,21.90
2017,05,29,13,47,21.90
2017,05,29,13,48,21.90
2017,05,29,13,49,21.80
2017,05,29,13,50,21.80
2017,05,29,13,51,21.80
2017,05,29,13,52,21.80
2017,05,29,13,53,21.90
2017,05,29,13,54,21.90
2017,05,29,13,55,21.90
2017,05,29,13,56,21.90
2017,05,29,13,57,21.90
2017,05,29,13,58,21.90
2017,05,29,13,59,21.90
2017,05,29,14,00,22.00
2017,05,29,14,01,22.00
2017,05,29,14,02,22.10
2017,05,29,14,03,22.20
2017,05,29,14,04,22.30
2017,05,29,14,05,22.30
2017,05,29,14,06,22.40
2017,05,29,14,07,22.40
2017,05,29,14,08,22.40
2017,05,29,14,09,22.40
2017,05,29,14,10,22.40
2017,05,29,14,11,22.40
2017,05,29,14,12,22.40
2017,05,29,14,13,22.40
2017,05,29,14,14,22.40
2017,05,29,14,15,22.30
2017,05,29,14,16,22.30
2017,05,29,14,17,22.30
2017,05,29,14,18,22.30
2017,05,29,14,19,22.20
2017,05,29,14,20,22.30
2017,05,29,14,21,22.20
2017,05,29,14,22,22.20
2017,05,29,14,23,22.20
2017,05,29,14,24,22.20
2017,05,29,14,25,22.20
2017,05,29,14,26,22.20
2017,05,29,14,27,22.20
2017,05,29,14,28,22.20
2017,05,29,14,29,22.20
2017,05,29,14,30,22.30
2017,05,29,14,31,22.40
2017,05,29,14,32,22.50
2017,05,29,14,33,22.60
2017,05,29,14,34,22.70
2017,05,29,14,35,22.80
2017,05,29,14,36,22.90
2017,05,29,14,37,22.90
2017,05,29,14,38,22.90
2017,05,29,14,39,23.00
2017,05,29,14,40,23.00
2017,05,29,14,41,22.90
2017,05,29,14,42,22.90
2017,05,29,14,43,22.90
2017,05,29,14,44,22.90
2017,05,29,14,45,23.00
2017,05,29,14,46,23.00
2017,05,29,14,47,23.10
2017,05,29,14,48,23.20
2017,05,29,14,49,23.20
2017,05,29,14,50,23.30
2017,05,29,14,51,23.30
2017,05,29,14,52,23.30
2017,05,29,14,53,23.40
2017,05,29,14,54,23.40
2017,05,29,14,55,23.40
2017,05,29,14,56,23.50
2017,05,29,14,57,23.50
2017,05,29,14,58,23.40
2017,05,29,14,59,23.40
2017,05,29,15,00,23.40
2017,05,29,15,01,23.50
2017,05,29,15,02,23.50
2017,05,29,15,03,23.50
2017,05,29,15,04,23.50
2017,05,29,15,05,23.60
2017,05,29,15,06,23.60
2017,05,29,15,07,23.60
2017,05,29,15,08,23.70
2017,05,29,15,09,23.70
2017,05,29,15,10,23.70
2017,05,29,15,11,23.80
2017,05,29,15,12,23.80
2017,05,29,15,13,23.80
2017,05,29,15,14,23.80
2017,05,29,15,15,23.80
2017,05,29,15,16,23.80
2017,05,29,15,17,23.80
2017,05,29,15,18,23.80
2017,05,29,15,19,23.80
2017,05,29,15,20,23.80
2017,05,29,15,21,23.80
2017,05,29,15,22,23.80
2017,05,29,15,23,23.80
2017,05,29,15,24,23.80
2017,05,29,15,25,23.80
2017,05,29,15,26,23.70
2017,05,29,15,27,23.60
2017,05,29,15,28,23.50
2017,05,29,15,29,23.40
2017,05,29,15,30,23.30
2017,05,29,15,31,23.30
2017,05,29,15,32,23.30
2017,05,29,15,33,23.40
2017,05,29,15,34,23.40
2017,05,29,15,35,23.50
2017,05,29,15,36,23.60
2017,05,29,15,37,23.70
2017,05,29,15,38,23.80
2017,05,29,15,39,23.80
2017,05,29,15,40,23.90
2017,05,29,15,41,23.90
2017,05,29,15,42,23.90
2017,05,29,15,43,23.90
2017,05,29,15,44,23.90
2017,05,29,15,45,23.90
2017,05,29,15,46,23.90
2017,05,29,15,47,23.90
2017,05,29,15,48,23.80
2017,05,29,15,49,23.80
2017,05,29,15,50,23.70
2017,05,29,15,51,23.60
2017,05,29,15,52,23.40
2017,05,29,15,53,23.30
2017,05,29,15,54,23.20
2017,05,29,15,55,23.20
2017,05,29,15,56,23.20
2017,05,29,15,57,23.10
2017,05,29,15,58,23.10
2017,05,29,15,59,23.10
2017,05,29,16,00,23.10
2017,05,29,16,01,23.20
2017,05,29,16,02,23.30
2017,05,29,16,03,23.30
2017,05,29,16,04,23.30
2017,05,29,16,05,23.20
2017,05,29,16,06,23.20
2017,05,29,16,07,23.20
2017,05,29,16,08,23.20
2017,05,29,16,09,23.20
2017,05,29,16,10,23.30
2017,05,29,16,11,23.30
2017,05,29,16,12,23.40
2017,05,29,16,13,23.40
2017,05,29,16,14,23.50
2017,05,29,16,15,23.60
2017,05,29,16,16,23.70
2017,05,29,16,17,23.70
2017,05,29,16,18,23.80
2017,05,29,16,19,23.80
2017,05,29,16,20,23.80
2017,05,29,16,21,23.70
2017,05,29,16,22,23.70
2017,05,29,16,23,23.60
2017,05,29,16,24,23.50
2017,05,29,16,25,23.50
2017,05,29,16,26,23.60
2017,05,29,16,27,23.70
2017,05,29,16,28,23.80
2017,05,29,16,29,23.90
2017,05,29,16,30,23.90
2017,05,29,16,31,24.00
2017,05,29,16,32,24.10
2017,05,29,16,33,24.10
2017,05,29,16,34,24.00
2017,05,29,16,35,24.00
2017,05,29,16,36,23.90
2017,05,29,16,37,24.00
2017,05,29,16,38,23.90
2017,05,29,16,39,23.90
2017,05,29,16,40,23.90
2017,05,29,16,41,24.00
2017,05,29,16,42,23.90
2017,05,29,16,43,23.90
2017,05,29,16,44,23.80
2017,05,29,16,45,23.90
2017,05,29,16,46,23.90
2017,05,29,16,47,23.90
2017,05,29,16,48,23.90
2017,05,29,16,49,24.00
2017,05,29,16,50,24.10
2017,05,29,16,51,24.10
2017,05,29,16,52,24.20
2017,05,29,16,53,24.20
2017,05,29,16,54,24.20
2017,05,29,16,55,24.20
2017,05,29,16,56,24.20
2017,05,29,16,57,24.20
2017,05,29,16,58,24.20
2017,05,29,16,59,24.20
2017,05,29,17,00,24.10
2017,05,29,17,01,24.10
2017,05,29,17,02,24.10
2017,05,29,17,03,24.00
2017,05,29,17,04,24.00
2017,05,29,17,05,24.00
2017,05,29,17,06,24.10
2017,05,29,17,07,24.10
2017,05,29,17,08,24.10
2017,05,29,17,09,24.10
2017,05,29,17,10,24.20
2017,05,29,17,11,24.20
2017,05,29,17,12,24.20
2017,05,29,17,13,24.30
2017,05,29,17,14,24.30
2017,05,29,17,15,24.30
2017,05,29,17,16,24.40
2017,05,29,17,17,24.40
2017,05,29,17,18,24.50
2017,05,29,17,19,24.40